Aérodrome :
LOGIN :

S'inscrire | Disclaimer

   EN    FR    IT 

 










Légende :    VFR   VFR Marginal   IFR   IFR Intensif   IFR Très Intensif
Visi : 
Plafond : 
>= 8 km
>= 3000ft
5 à 8 km
1000 à 3000 ft
1500m à 5 km
500 à 1000 ft
800 à 1500m
200 à 500 ft
< 800m
< 200 ft
Symboles :   Orages  Brouillard  Fortes neiges  Fortes précipitations  Vent > 20 kt
SIGMETs :   Divers  Orages  Givrage  Turbulence  Onde Orograph.  Cendres Volcan.







- Altitude de l'aérodrome : 2077 ft
- Code IATA : FMM


EDJA - Memmingen

DERNIER METAR :
  • 171320Z 07008KT 020V090 CAVOK 19/08 Q1018

METARs EXPIRÉS :
  • 171220Z 04008KT CAVOK 19/08 Q1019
  • 171150Z 03007KT 360V070 CAVOK 19/08 Q1019
  • 171120Z 03006KT 350V070 CAVOK 19/10 Q1019
  • 171050Z 05005KT 020V090 CAVOK 18/08 Q1019
  • 171020Z VRB03KT CAVOK 18/09 Q1020

TAF TAF EDJA
Valide du 17 à 12h jusqu'au 17 à 21h UTC


171100Z 1712/1721 04005KT CAVOK
BECMG 1717/1719 VRB03KT
Pas de NOTAMs connus pour ce terrain.



MET'MAP, la Météo Aéronautique d'un coup d'oeil ! - Copyright ORBIFLY Décembre 2007 - Disclaimer

ORBIFLY MET'MAP TEAM :

Programmation & Développement : Alexandra Zaïnal
Conception & Développement : Baudouin d'Aumeries
Co-Programmation & Développement : Marc-Olivier Méhu
Soutien technique & logistique : Manuel Goepfert

Contact : metmap@orbifly.com




SOURCES & CREDITS :

   NOAA